NOZ77Y LIMC-ENGM

Flight info

Callsign NOZ77Y
Flight time N/A
Altitude 34000
Route OSKOR DCT NESTI DCT TAGIP DCT DIBAX DCT GUNGO DCT BRENO DCT KONIN DCT EXITI DCT BKD M726 NOBRI/N0438F350 DCT NEDIK/N0434F340 DCT RISMA DCT GIXUN DCT SABAK L997 REGMA DCT LUNIP
Aircraft MD82/M-SDFGIRWY/C

Departure

Time 2026-05-08 08:34
Airport Milan Malpensa International Airport (LIMC)

Arrival

Time N/A
Airport Oslo-Gardermoen International Airport (ENGM)
Time Latitude Longitude Altitude Speed Heading
2026-05-08 08:03 45.62837 8.71443 744 ft 0 kts 168°
2026-05-08 08:24 45.62841 8.71441 744 ft 2 kts 170°
2026-05-08 08:25 45.62856 8.71438 743 ft 2 kts 169°
2026-05-08 08:25 45.62864 8.71435 743 ft 2 kts 168°
2026-05-08 08:25 45.62879 8.71431 743 ft 2 kts 168°
2026-05-08 08:25 45.62893 8.71426 743 ft 2 kts 168°
2026-05-08 08:26 45.62908 8.71422 742 ft 2 kts 168°
2026-05-08 08:26 45.62922 8.71418 742 ft 0 kts 168°
2026-05-08 08:26 45.62931 8.71413 742 ft 2 kts 136°
2026-05-08 08:26 45.62936 8.71404 742 ft 0 kts 110°
2026-05-08 08:27 45.62929 8.71425 742 ft 5 kts 103°
2026-05-08 08:27 45.62928 8.71474 742 ft 2 kts 81°
2026-05-08 08:27 45.62929 8.71481 742 ft 0 kts 79°
2026-05-08 08:27 45.62929 8.71482 742 ft 0 kts 79°
2026-05-08 08:29 45.62934 8.71494 742 ft 5 kts 57°
2026-05-08 08:29 45.62957 8.71566 741 ft 8 kts 82°
2026-05-08 08:29 45.62962 8.71639 740 ft 6 kts 91°
2026-05-08 08:29 45.62936 8.71737 741 ft 16 kts 148°
2026-05-08 08:30 45.62799 8.71790 740 ft 21 kts 169°
2026-05-08 08:30 45.62654 8.71830 737 ft 20 kts 169°
2026-05-08 08:30 45.62414 8.71896 735 ft 15 kts 169°
2026-05-08 08:31 45.62347 8.71962 734 ft 12 kts 96°
2026-05-08 08:31 45.62368 8.72163 731 ft 25 kts 94°
2026-05-08 08:31 45.62255 8.72265 727 ft 24 kts 146°
2026-05-08 08:31 45.62250 8.72507 721 ft 29 kts 79°
2026-05-08 08:32 45.62289 8.72813 714 ft 33 kts 81°
2026-05-08 08:32 45.62245 8.73037 712 ft 23 kts 166°
2026-05-08 08:32 45.62085 8.73075 708 ft 22 kts 167°
2026-05-08 08:32 45.61945 8.73131 704 ft 20 kts 169°
2026-05-08 08:33 45.61795 8.73165 701 ft 24 kts 160°
2026-05-08 08:33 45.61658 8.73367 695 ft 32 kts 125°
2026-05-08 08:33 45.61591 8.73658 693 ft 28 kts 66°
2026-05-08 08:33 45.61796 8.73689 698 ft 57 kts 349°
2026-05-08 08:34 45.62427 8.73514 710 ft 125 kts 349°
2026-05-08 08:34 45.63470 8.73226 810 ft 171 kts 349°
2026-05-08 08:34 45.64627 8.72905 1558 ft 172 kts 349°
2026-05-08 08:34 45.65809 8.72556 2228 ft 180 kts 349°
2026-05-08 08:35 45.67092 8.72170 2672 ft 205 kts 349°
2026-05-08 08:35 45.68545 8.71888 3393 ft 213 kts
2026-05-08 08:35 45.69883 8.72573 4311 ft 208 kts 38°
2026-05-08 08:35 45.70892 8.74081 4935 ft 221 kts 58°
2026-05-08 08:36 45.71579 8.76088 5539 ft 234 kts 70°
2026-05-08 08:36 45.72150 8.78293 6237 ft 246 kts 69°
2026-05-08 08:36 45.72815 8.80634 6755 ft 264 kts 68°
2026-05-08 08:36 45.73291 8.83111 7964 ft 243 kts 83°
2026-05-08 08:37 45.73265 8.85225 9179 ft 215 kts 106°
2026-05-08 08:37 45.72516 8.87155 9505 ft 234 kts 129°
2026-05-08 08:37 45.71478 8.89094 9793 ft 257 kts 127°
2026-05-08 08:37 45.70363 8.91202 10162 ft 278 kts 127°
2026-05-08 08:38 45.69159 8.93493 10508 ft 299 kts 127°
2026-05-08 08:38 45.67889 8.95925 10845 ft 319 kts 127°
2026-05-08 08:38 45.66543 8.98516 11337 ft 329 kts 126°
2026-05-08 08:38 45.65251 9.01107 12529 ft 315 kts 118°
2026-05-08 08:39 45.64475 9.04028 12782 ft 330 kts 101°
2026-05-08 08:39 45.64367 9.07411 12835 ft 350 kts 87°
2026-05-08 08:39 45.64441 9.10875 13465 ft 350 kts 89°
2026-05-08 08:39 45.64505 9.14386 13938 ft 356 kts 89°
2026-05-08 08:40 45.64554 9.17879 14482 ft 358 kts 90°
2026-05-08 08:40 45.64595 9.21466 14993 ft 362 kts 90°
2026-05-08 08:40 45.64629 9.25052 15510 ft 365 kts 90°
2026-05-08 08:40 45.64658 9.28687 16007 ft 369 kts 90°
2026-05-08 08:41 45.64684 9.32364 16484 ft 372 kts 90°
2026-05-08 08:41 45.64706 9.36066 16975 ft 375 kts 90°
2026-05-08 08:41 45.64727 9.39772 17440 ft 378 kts 90°
2026-05-08 08:41 45.64747 9.43498 17893 ft 381 kts 90°
2026-05-08 08:42 45.64767 9.47303 18358 ft 384 kts 90°
2026-05-08 08:42 45.64786 9.51123 18783 ft 388 kts 90°
2026-05-08 08:42 45.64806 9.54964 19226 ft 390 kts 90°
2026-05-08 08:42 45.64827 9.58868 19661 ft 394 kts 90°
2026-05-08 08:43 45.64845 9.62749 20064 ft 397 kts 90°
2026-05-08 08:43 45.64854 9.66714 20490 ft 400 kts 91°
2026-05-08 08:43 45.64862 9.70745 20847 ft 404 kts 91°
2026-05-08 08:43 45.64867 9.74726 21294 ft 406 kts 91°
2026-05-08 08:44 45.64870 9.78731 21665 ft 409 kts 91°
2026-05-08 08:44 45.64875 9.82855 22033 ft 412 kts 91°
2026-05-08 08:44 45.64878 9.86931 22393 ft 415 kts 91°
2026-05-08 08:44 45.64883 9.91061 22792 ft 417 kts 91°
2026-05-08 08:45 45.64888 9.95216 23117 ft 421 kts 91°
2026-05-08 08:45 45.64894 9.99373 23464 ft 424 kts 91°
2026-05-08 08:45 45.64903 10.03604 23800 ft 427 kts 91°
2026-05-08 08:45 45.64919 10.07822 24161 ft 429 kts 89°
2026-05-08 08:46 45.65433 10.12040 24445 ft 435 kts 72°
2026-05-08 08:46 45.66658 10.15933 24801 ft 438 kts 58°
2026-05-08 08:46 45.68472 10.19462 25147 ft 439 kts 53°
2026-05-08 08:46 45.70311 10.22956 25320 ft 446 kts 53°
2026-05-08 08:47 45.72161 10.26517 25760 ft 445 kts 53°
2026-05-08 08:47 45.73975 10.30049 26037 ft 449 kts 54°
2026-05-08 08:47 45.75825 10.33685 26314 ft 452 kts 54°
2026-05-08 08:47 45.77662 10.37312 26649 ft 454 kts 54°
2026-05-08 08:48 45.79532 10.41024 26844 ft 459 kts 54°
2026-05-08 08:48 45.81381 10.44721 27252 ft 459 kts 54°
2026-05-08 08:48 45.83237 10.48463 27407 ft 465 kts 54°
2026-05-08 08:48 45.85083 10.52193 27785 ft 465 kts 54°
2026-05-08 08:49 45.86959 10.55988 27960 ft 469 kts 54°
2026-05-08 08:49 45.88850 10.59813 28284 ft 471 kts 54°
2026-05-08 08:49 45.90756 10.63672 28498 ft 475 kts 54°
2026-05-08 08:49 45.92645 10.67493 28736 ft 477 kts 55°
2026-05-08 08:50 45.94568 10.71398 29056 ft 478 kts 56°
2026-05-08 08:50 45.96479 10.75304 29211 ft 482 kts 56°
2026-05-08 08:50 45.98405 10.79252 29489 ft 483 kts 56°
2026-05-08 08:50 46.00328 10.83193 29684 ft 486 kts 56°
2026-05-08 08:51 46.02249 10.87144 29965 ft 487 kts 55°
2026-05-08 08:51 46.04209 10.91165 30079 ft 491 kts 55°
2026-05-08 08:51 46.06146 10.95140 30380 ft 491 kts 55°
2026-05-08 08:51 46.08119 10.99193 30510 ft 495 kts 55°
2026-05-08 08:52 46.10282 11.03037 30715 ft 494 kts 42°
2026-05-08 08:52 46.13041 11.05952 30743 ft 494 kts 25°
2026-05-08 08:52 46.16217 11.07678 30961 ft 486 kts
2026-05-08 08:52 46.19507 11.08121 31137 ft 478 kts 352°
2026-05-08 08:53 46.26141 11.07334 31447 ft 479 kts 352°
2026-05-08 08:53 46.32843 11.06913 31632 ft 485 kts 353°
2026-05-08 08:54 46.36238 11.06788 31800 ft 486 kts 354°
2026-05-08 08:54 46.39585 11.06721 31910 ft 489 kts 356°
2026-05-08 08:54 46.43023 11.07219 31980 ft 495 kts
2026-05-08 08:54 46.46363 11.08500 32098 ft 501 kts 18°
2026-05-08 08:55 46.52834 11.12299 32291 ft 502 kts 19°
2026-05-08 08:55 46.56068 11.14162 32407 ft 502 kts 18°
2026-05-08 08:55 46.59324 11.16018 32447 ft 503 kts 18°
2026-05-08 08:56 46.65866 11.19706 32530 ft 506 kts 18°
2026-05-08 08:56 46.69117 11.21530 32642 ft 505 kts 18°
2026-05-08 08:56 46.72420 11.23380 32693 ft 505 kts 18°
2026-05-08 08:57 46.78961 11.27031 32807 ft 505 kts 17°
2026-05-08 08:57 46.85560 11.30704 32860 ft 506 kts 17°
2026-05-08 08:58 46.92103 11.34342 32932 ft 506 kts 17°
2026-05-08 08:58 46.95390 11.36169 33110 ft 500 kts 16°
2026-05-08 08:58 46.98683 11.37485 33828 ft 482 kts
2026-05-08 08:59 47.01957 11.37949 33847 ft 478 kts 354°
2026-05-08 08:59 47.05272 11.37830 33857 ft 480 kts 353°
2026-05-08 08:59 47.08608 11.37732 34099 ft 479 kts 353°
2026-05-08 08:59 47.11946 11.37648 34109 ft 484 kts 354°
2026-05-08 09:00 47.18742 11.37522 34074 ft 490 kts 354°
2026-05-08 09:00 47.25536 11.37426 34066 ft 491 kts 354°
2026-05-08 09:01 47.32375 11.37344 34078 ft 491 kts 354°
2026-05-08 09:01 47.39223 11.37271 34085 ft 492 kts 354°
2026-05-08 09:02 47.46046 11.37200 34099 ft 490 kts 354°
2026-05-08 09:02 47.52842 11.37132 34099 ft 487 kts 354°
2026-05-08 09:03 47.59611 11.37064 34105 ft 489 kts 354°
2026-05-08 09:03 47.66446 11.36997 34092 ft 487 kts 354°
2026-05-08 09:04 47.73195 11.36928 34082 ft 486 kts 354°
2026-05-08 09:04 47.79930 11.36862 34093 ft 486 kts 354°
2026-05-08 09:05 47.86710 11.36796 34079 ft 485 kts 355°
2026-05-08 09:05 47.93481 11.36921 34078 ft 485 kts 355°
2026-05-08 09:06 48.00182 11.37062 34074 ft 485 kts 355°
2026-05-08 09:06 48.06925 11.37207 34073 ft 484 kts 356°
2026-05-08 09:07 48.13654 11.37358 34072 ft 483 kts 356°
2026-05-08 09:07 48.20341 11.37513 34073 ft 483 kts 356°
2026-05-08 09:08 48.27076 11.37666 34070 ft 483 kts 356°
2026-05-08 09:08 48.33758 11.37822 34070 ft 482 kts 356°
2026-05-08 09:09 48.40449 11.37977 34070 ft 483 kts 356°
2026-05-08 09:09 48.47125 11.38128 34075 ft 481 kts 357°
2026-05-08 09:10 48.53793 11.38284 34081 ft 480 kts 357°
2026-05-08 09:10 48.60472 11.38439 34084 ft 480 kts 357°
2026-05-08 09:11 48.67141 11.38593 34080 ft 480 kts 357°
2026-05-08 09:11 48.73833 11.38749 34077 ft 480 kts 357°
2026-05-08 09:12 48.80497 11.38907 34078 ft 480 kts 357°
2026-05-08 09:12 48.87152 11.39065 34077 ft 479 kts 358°
2026-05-08 09:13 48.93818 11.39224 34082 ft 477 kts 358°
2026-05-08 09:13 49.00440 11.39383 34082 ft 477 kts 358°
2026-05-08 09:14 49.07067 11.39542 34072 ft 476 kts 358°
2026-05-08 09:14 49.13672 11.39701 34070 ft 476 kts 358°
2026-05-08 09:15 49.20334 11.39862 34074 ft 476 kts 358°
2026-05-08 09:15 49.26916 11.40019 34082 ft 476 kts 358°
2026-05-08 09:16 49.33535 11.40178 34086 ft 475 kts 358°
2026-05-08 09:16 49.40149 11.40337 34085 ft 475 kts 357°
2026-05-08 09:17 49.46706 11.40493 34093 ft 474 kts 357°
2026-05-08 09:17 49.53280 11.40649 34090 ft 473 kts 357°
2026-05-08 09:18 49.59879 11.40844 34089 ft 473 kts 358°
2026-05-08 09:18 49.66436 11.41085 34094 ft 473 kts 358°
2026-05-08 09:19 49.73000 11.41331 34088 ft 473 kts 358°
2026-05-08 09:19 49.79559 11.41578 34094 ft 473 kts 358°
2026-05-08 09:20 49.86129 11.41827 34099 ft 471 kts 358°
2026-05-08 09:20 49.92657 11.42075 34102 ft 470 kts 358°
2026-05-08 09:21 49.99178 11.42322 34110 ft 470 kts 358°
2026-05-08 09:23 50.22024 11.43185 34113 ft 469 kts 358°
2026-05-08 09:23 50.28530 11.43432 34111 ft 469 kts 358°
2026-05-08 09:24 50.35030 11.43678 34107 ft 469 kts 358°
2026-05-08 09:24 50.41531 11.43926 34104 ft 468 kts 358°
2026-05-08 09:25 50.47998 11.44177 34116 ft 468 kts 358°
2026-05-08 09:25 50.54503 11.44431 34102 ft 468 kts 358°
2026-05-08 09:26 50.61010 11.44686 34114 ft 468 kts 358°
2026-05-08 09:26 50.67483 11.44940 34123 ft 467 kts 358°
2026-05-08 09:27 50.73953 11.45194 34133 ft 467 kts 358°
2026-05-08 09:27 50.80439 11.45449 34140 ft 466 kts 358°
2026-05-08 09:28 50.86900 11.45702 34143 ft 466 kts 358°
2026-05-08 09:28 50.93388 11.45957 34139 ft 466 kts 358°
2026-05-08 09:29 50.99852 11.46210 34139 ft 466 kts 358°
2026-05-08 09:29 51.06317 11.46465 34141 ft 466 kts 358°
2026-05-08 09:30 51.12786 11.46719 34143 ft 465 kts 358°
2026-05-08 09:30 51.19218 11.46972 34149 ft 465 kts 358°
2026-05-08 09:31 51.25682 11.47227 34153 ft 465 kts 358°
2026-05-08 09:31 51.32149 11.47487 34159 ft 465 kts 359°
2026-05-08 09:32 51.38564 11.47748 34159 ft 465 kts 358°
2026-05-08 09:32 51.45025 11.48010 34156 ft 465 kts 358°
2026-05-08 09:33 51.51459 11.48271 34160 ft 464 kts 359°
2026-05-08 09:33 51.57926 11.48535 34163 ft 463 kts 359°
2026-05-08 09:34 51.64341 11.48795 34168 ft 463 kts 359°
2026-05-08 09:34 51.70774 11.49057 34176 ft 463 kts 359°
2026-05-08 09:35 51.77219 11.49321 34181 ft 464 kts 359°
2026-05-08 09:35 51.83620 11.49581 34185 ft 464 kts 359°
2026-05-08 09:36 51.90087 11.49845 34182 ft 464 kts 359°
2026-05-08 09:36 51.96543 11.50108 34184 ft 464 kts 359°
2026-05-08 09:37 52.02979 11.50369 34184 ft 463 kts 359°
2026-05-08 09:37 52.09387 11.50633 34175 ft 463 kts 359°
2026-05-08 09:38 52.15853 11.50904 34171 ft 463 kts 359°
2026-05-08 09:38 52.22262 11.51173 34174 ft 464 kts 359°
2026-05-08 09:39 52.28715 11.51446 34177 ft 464 kts 359°
2026-05-08 09:39 52.35136 11.51717 34179 ft 464 kts 359°
2026-05-08 09:40 52.41608 11.51991 34179 ft 464 kts 359°
2026-05-08 09:40 52.48030 11.52263 34178 ft 464 kts 359°
2026-05-08 09:41 52.54463 11.52533 34181 ft 465 kts 359°
2026-05-08 09:41 52.60893 11.52804 34185 ft 465 kts 359°
2026-05-08 09:42 52.67375 11.53078 34184 ft 465 kts 359°
2026-05-08 09:42 52.73789 11.53350 34189 ft 465 kts 359°
2026-05-08 09:43 52.80233 11.53622 34190 ft 465 kts 359°
2026-05-08 09:43 52.86730 11.53898 34189 ft 465 kts 359°
2026-05-08 09:44 52.93170 11.54173 34193 ft 465 kts 359°
2026-05-08 09:44 52.99654 11.54454 34194 ft 465 kts 359°
2026-05-08 09:45 53.06078 11.55188 34198 ft 467 kts
2026-05-08 09:45 53.12558 11.56509 34197 ft 468 kts
2026-05-08 09:46 53.18960 11.57817 34202 ft 467 kts
2026-05-08 09:46 53.25391 11.59295 34198 ft 468 kts
2026-05-08 09:47 53.31737 11.61573 34201 ft 469 kts 11°
2026-05-08 09:47 53.38094 11.63963 34197 ft 470 kts 11°
2026-05-08 09:48 53.44454 11.66367 34199 ft 470 kts 11°
2026-05-08 09:48 53.50840 11.68790 34201 ft 469 kts 11°
2026-05-08 09:49 53.57173 11.71197 34200 ft 469 kts 11°
2026-05-08 09:49 53.63503 11.73604 34196 ft 469 kts 11°
2026-05-08 09:50 53.69873 11.76027 34203 ft 469 kts 11°
2026-05-08 09:50 53.76208 11.78438 34210 ft 469 kts 11°
2026-05-08 09:51 53.82558 11.80855 34201 ft 469 kts 11°
2026-05-08 09:51 53.88914 11.83273 34196 ft 470 kts 11°
2026-05-08 09:52 53.95260 11.85689 34193 ft 469 kts 11°
2026-05-08 09:52 54.01597 11.88100 34198 ft 469 kts 11°
2026-05-08 09:53 54.07959 11.90521 34204 ft 469 kts 11°
2026-05-08 09:53 54.14322 11.92983 34217 ft 470 kts 12°
2026-05-08 09:54 54.20645 11.95450 34218 ft 471 kts 12°
2026-05-08 09:54 54.27044 11.97952 34219 ft 472 kts 12°
2026-05-08 09:55 54.33435 12.00454 34220 ft 471 kts 12°
2026-05-08 09:55 54.39809 12.02950 34221 ft 471 kts 12°
2026-05-08 09:56 54.46176 12.05436 34221 ft 471 kts 11°
2026-05-08 09:56 54.52640 12.06519 34227 ft 469 kts 359°
2026-05-08 09:57 54.62438 12.06122 34227 ft 470 kts 358°
2026-05-08 09:57 54.68906 12.05887 34229 ft 470 kts 358°
2026-05-08 09:58 54.75424 12.05665 34340 ft 467 kts 358°
2026-05-08 09:58 54.78672 12.05556 34564 ft 464 kts 359°
2026-05-08 09:58 54.81867 12.05452 34758 ft 463 kts 358°
2026-05-08 09:59 54.85079 12.05347 34958 ft 461 kts 359°
2026-05-08 09:59 54.88282 12.05243 35155 ft 460 kts 358°
2026-05-08 09:59 54.94672 12.05036 35233 ft 465 kts 359°
2026-05-08 10:00 55.01167 12.04827 35252 ft 469 kts 359°
2026-05-08 10:00 55.07667 12.04619 35248 ft 470 kts 359°
2026-05-08 10:01 55.14199 12.04409 35256 ft 471 kts 359°
2026-05-08 10:01 55.20706 12.04199 35258 ft 472 kts 359°
2026-05-08 10:02 55.27286 12.03987 35256 ft 474 kts 359°
2026-05-08 10:02 55.33870 12.03774 35257 ft 474 kts 359°
2026-05-08 10:03 55.40460 12.03560 35262 ft 473 kts 359°
2026-05-08 10:03 55.47004 12.03344 35267 ft 473 kts 359°
2026-05-08 10:04 55.53545 12.03127 35255 ft 473 kts 359°
2026-05-08 10:04 55.60108 12.02907 35265 ft 473 kts 359°
2026-05-08 10:05 55.66656 12.02689 35265 ft 474 kts 360°
2026-05-08 10:05 55.73247 12.02466 35267 ft 473 kts
2026-05-08 10:06 55.79796 12.02248 35260 ft 473 kts
2026-05-08 10:06 55.86368 12.02027 35263 ft 471 kts
2026-05-08 10:07 55.92889 12.01808 35266 ft 470 kts
2026-05-08 10:07 55.99395 12.01593 35259 ft 470 kts
2026-05-08 10:08 56.05926 12.01378 35254 ft 471 kts
2026-05-08 10:08 56.12501 12.01157 35258 ft 472 kts
2026-05-08 10:09 56.19016 12.00939 35252 ft 470 kts
2026-05-08 10:09 56.25537 12.00713 35262 ft 471 kts
2026-05-08 10:10 56.32067 12.00491 35256 ft 472 kts
2026-05-08 10:10 56.38623 12.00263 35262 ft 473 kts
2026-05-08 10:11 56.45170 12.00036 35261 ft 473 kts
2026-05-08 10:11 56.51732 11.99805 35265 ft 473 kts
2026-05-08 10:12 56.58292 11.99574 35264 ft 474 kts
2026-05-08 10:12 56.64860 11.99346 35258 ft 474 kts
2026-05-08 10:13 56.71417 11.99118 35258 ft 473 kts
2026-05-08 10:13 56.77981 11.98890 35261 ft 474 kts
2026-05-08 10:14 56.84562 11.98660 35257 ft 475 kts
2026-05-08 10:14 56.91149 11.98429 35258 ft 476 kts
2026-05-08 10:15 56.97728 11.97374 35274 ft 477 kts 353°
2026-05-08 10:15 57.04275 11.95477 35258 ft 480 kts 353°
2026-05-08 10:16 57.10857 11.93578 35259 ft 479 kts 353°
2026-05-08 10:16 57.17404 11.91693 35251 ft 479 kts 352°
2026-05-08 10:17 57.24008 11.89792 35251 ft 480 kts 353°
2026-05-08 10:17 57.30551 11.87912 35251 ft 480 kts 353°
2026-05-08 10:18 57.37132 11.86020 35256 ft 481 kts 353°
2026-05-08 10:18 57.43720 11.84131 35254 ft 481 kts 353°
2026-05-08 10:19 57.50320 11.82237 35252 ft 482 kts 352°
2026-05-08 10:20 57.60262 11.79383 35254 ft 482 kts 352°
2026-05-08 10:20 57.66855 11.77492 35252 ft 483 kts 352°
2026-05-08 10:21 57.73461 11.75594 35254 ft 483 kts 352°
2026-05-08 10:21 57.80131 11.73657 35250 ft 483 kts 352°
2026-05-08 10:22 57.86746 11.72264 35265 ft 483 kts 356°
2026-05-08 10:22 57.93441 11.71243 35253 ft 484 kts 356°
2026-05-08 10:23 58.00093 11.70190 35248 ft 483 kts 356°
2026-05-08 10:23 58.06765 11.69114 35248 ft 483 kts 356°
2026-05-08 10:24 58.13458 11.68027 35241 ft 484 kts 356°
2026-05-08 10:24 58.20142 11.66934 35242 ft 484 kts 356°
2026-05-08 10:25 58.26842 11.65837 35240 ft 485 kts 355°
2026-05-08 10:25 58.33542 11.64737 34890 ft 486 kts 355°
2026-05-08 10:25 58.36868 11.64190 34184 ft 475 kts 355°
2026-05-08 10:26 58.40113 11.63659 33532 ft 467 kts 355°
2026-05-08 10:26 58.43356 11.63128 32872 ft 467 kts 355°
2026-05-08 10:26 58.46560 11.62603 32233 ft 473 kts 355°
2026-05-08 10:26 58.49860 11.62060 31584 ft 476 kts 355°
2026-05-08 10:27 58.53120 11.61524 30951 ft 473 kts 355°
2026-05-08 10:27 58.56399 11.60985 30301 ft 467 kts 355°
2026-05-08 10:27 58.59566 11.60466 29660 ft 461 kts 355°
2026-05-08 10:27 58.62746 11.59945 28997 ft 455 kts 355°
2026-05-08 10:28 58.65877 11.59429 28351 ft 449 kts 355°
2026-05-08 10:28 58.68960 11.58909 27692 ft 444 kts 355°
2026-05-08 10:28 58.71976 11.58398 27054 ft 440 kts 355°
2026-05-08 10:28 58.75011 11.57882 26393 ft 436 kts 355°
2026-05-08 10:29 58.78011 11.57371 25744 ft 432 kts 355°
2026-05-08 10:29 58.80970 11.56865 25088 ft 428 kts 355°
2026-05-08 10:29 58.83882 11.56368 24438 ft 423 kts 354°
2026-05-08 10:29 58.86789 11.56010 23787 ft 419 kts 357°
2026-05-08 10:30 58.89687 11.55737 23134 ft 415 kts 357°
2026-05-08 10:30 58.92532 11.55468 22486 ft 410 kts 357°
2026-05-08 10:30 58.95335 11.55199 21849 ft 406 kts 357°
2026-05-08 10:30 58.98137 11.54927 21205 ft 402 kts 357°
2026-05-08 10:31 59.00910 11.54655 20547 ft 398 kts 357°
2026-05-08 10:31 59.03643 11.54386 19907 ft 395 kts 357°
2026-05-08 10:31 59.06365 11.54116 19255 ft 391 kts 357°
2026-05-08 10:31 59.09032 11.53852 18623 ft 388 kts 357°
2026-05-08 10:32 59.11705 11.53587 17989 ft 384 kts 357°
2026-05-08 10:32 59.14355 11.53325 17357 ft 380 kts 357°
2026-05-08 10:32 59.16977 11.53064 16716 ft 376 kts 356°
2026-05-08 10:32 59.19543 11.52809 16078 ft 373 kts 356°
2026-05-08 10:33 59.22106 11.52555 15470 ft 368 kts 356°
2026-05-08 10:33 59.24647 11.52301 14871 ft 364 kts 356°
2026-05-08 10:33 59.27164 11.52050 14288 ft 361 kts 356°
2026-05-08 10:33 59.29635 11.51804 13694 ft 358 kts 356°
2026-05-08 10:34 59.32106 11.51556 13102 ft 356 kts 356°
2026-05-08 10:34 59.34571 11.51308 12524 ft 354 kts 356°
2026-05-08 10:34 59.36973 11.51067 12220 ft 345 kts 356°
2026-05-08 10:34 59.39355 11.50829 12225 ft 343 kts 356°
2026-05-08 10:35 59.41763 11.50589 12227 ft 345 kts 356°
2026-05-08 10:35 59.44079 11.50359 12208 ft 326 kts 356°
2026-05-08 10:35 59.46272 11.50141 12198 ft 312 kts 356°
2026-05-08 10:35 59.48418 11.49927 12196 ft 311 kts 356°
2026-05-08 10:36 59.50607 11.49709 12226 ft 316 kts 356°
2026-05-08 10:36 59.52821 11.49487 12231 ft 320 kts 356°
2026-05-08 10:36 59.55026 11.49266 12215 ft 321 kts 356°
2026-05-08 10:36 59.57250 11.49045 12215 ft 320 kts 356°
2026-05-08 10:37 59.59479 11.48821 12169 ft 320 kts 356°
2026-05-08 10:37 59.61704 11.48598 11964 ft 323 kts 356°
2026-05-08 10:37 59.63914 11.48377 11694 ft 321 kts 356°
2026-05-08 10:37 59.66142 11.48155 11435 ft 329 kts 356°
2026-05-08 10:38 59.68581 11.47901 11260 ft 362 kts 356°
2026-05-08 10:38 59.71087 11.47641 11104 ft 367 kts 356°
2026-05-08 10:38 59.73637 11.47376 10843 ft 365 kts 356°
2026-05-08 10:38 59.76129 11.47117 10585 ft 360 kts 356°
2026-05-08 10:39 59.78613 11.46859 10350 ft 357 kts 356°
2026-05-08 10:39 59.81101 11.46600 10137 ft 356 kts 356°
2026-05-08 10:39 59.83567 11.46343 9951 ft 357 kts 356°
2026-05-08 10:39 59.86020 11.46087 9751 ft 357 kts 356°
2026-05-08 10:40 59.88498 11.45829 9551 ft 355 kts 356°
2026-05-08 10:40 59.90934 11.45575 9337 ft 354 kts 356°
2026-05-08 10:40 59.93391 11.45319 9120 ft 352 kts 356°
2026-05-08 10:40 59.95832 11.45063 8896 ft 351 kts 356°
2026-05-08 10:41 59.98234 11.44811 8672 ft 349 kts 356°
2026-05-08 10:41 60.00655 11.44558 8441 ft 348 kts 356°
2026-05-08 10:41 60.03077 11.44305 8215 ft 348 kts 356°
2026-05-08 10:41 60.05455 11.44057 7991 ft 347 kts 356°
2026-05-08 10:42 60.07872 11.43804 7768 ft 346 kts 356°
2026-05-08 10:42 60.10267 11.43553 7542 ft 345 kts 356°
2026-05-08 10:42 60.11845 11.43389 7385 ft 344 kts 356°
2026-05-08 10:43 60.17873 11.42760 6792 ft 342 kts 357°
2026-05-08 10:43 60.20229 11.42821 6563 ft 341 kts
2026-05-08 10:43 60.22597 11.42919 6332 ft 341 kts
2026-05-08 10:43 60.24966 11.43019 6100 ft 340 kts
2026-05-08 10:44 60.27303 11.43117 5872 ft 338 kts
2026-05-08 10:44 60.29652 11.43213 5638 ft 331 kts
2026-05-08 10:44 60.31887 11.43303 5370 ft 317 kts
2026-05-08 10:44 60.34050 11.43392 5086 ft 305 kts
2026-05-08 10:45 60.36112 11.43474 4808 ft 295 kts
2026-05-08 10:45 60.38056 11.42676 4477 ft 282 kts 328°
2026-05-08 10:45 60.39378 11.39999 4207 ft 264 kts 293°
2026-05-08 10:45 60.39994 11.36629 3990 ft 250 kts 286°
2026-05-08 10:46 60.40538 11.33419 3965 ft 233 kts 285°
2026-05-08 10:46 60.41047 11.30455 3958 ft 217 kts 285°
2026-05-08 10:46 60.41469 11.27666 3927 ft 199 kts 268°
2026-05-08 10:46 60.41074 11.25159 3964 ft 185 kts 235°
2026-05-08 10:47 60.40355 11.23112 3948 ft 178 kts 228°
2026-05-08 10:47 60.39500 11.21334 3969 ft 174 kts 222°
2026-05-08 10:47 60.39221 11.20784 3971 ft 175 kts 221°